Weather History for Rolla, ND

Change the Weather History Date:

Sunday, October 9, 2011

  Actual Average (KRUG) Record (KRUG)
Temperature  
Mean Temperature 42 °F -  
Max Temperature 53 °F 58 °F 82 °F (1955)
Min Temperature 32 °F 33 °F 12 °F (1985)
Degree Days  
Heating Degree Days 22    
Moisture  
Dew Point 39 °F    
Average Humidity 81    
Maximum Humidity 100    
Minimum Humidity 58    
Precipitation  
Precipitation 0.02 in - - ()
Sea Level Pressure  
Sea Level Pressure 30.21 in    
Wind  
Wind Speed 7 mph (ENE)    
Max Wind Speed 14 mph    
Max Gust Speed 20 mph    
Visibility 10 miles    
Events Rain    
Averages and records for this station are not official NWS values.
T = Trace of Precipitation, MM = Missing Value Source: NWS Daily Summary

Daily Weather History Graph

Daily Weather History Graph

Search for Another Location

Airport:

Trip Planner

Search our weather history database for the weather conditions in past years. The results will help you decide how hot, cold, wet, or windy it might be!

Date:

Astronomy

Oct. 09, 2011 Rise Set
Actual Time 7:49 AM CDT 7:01 PM CDT
Civil Twilight 7:17 AM CDT 7:32 PM CDT
Nautical Twilight 6:41 AM CDT 8:09 PM CDT
Astronomical Twilight 6:04 AM CDT 8:45 PM CDT
Moon 5:43 PM CDT (10/9) 5:28 AM CDT (10/9)
Length of Visible Light 12h 14m
Length of Day
11h 11m
Waxing Gibbous, 95% of the Moon is Illuminated
Oct 9
Waxing Gibbous
Oct 11
Full
Oct 19
Last Quarter
Oct 26
New
Nov 2
First Quarter

Hourly Weather History & Observations

Time (CDT) Temp. Windchill Dew Point Humidity Pressure Visibility Wind Dir Wind Speed Gust Speed Precip Events Conditions
12:15 AM 42.8 °F 39.3 °F 35.6 °F 76% 30.21 in 10.0 mi NNW 5.8 mph - N/A   Clear
12:35 AM 42.8 °F 38.6 °F 35.6 °F 76% 30.22 in 10.0 mi NNW 6.9 mph - N/A   Clear
12:55 AM 41.0 °F 35.2 °F 35.6 °F 81% 30.23 in 10.0 mi NW 9.2 mph - N/A   Clear
1:15 AM 41.0 °F 37.1 °F 33.8 °F 76% 30.23 in 10.0 mi NNW 5.8 mph - N/A   Clear
1:35 AM 41.0 °F 39.0 °F 35.6 °F 81% 30.23 in 10.0 mi NNW 3.5 mph - N/A   Clear
2:15 AM 37.4 °F 32.8 °F 35.6 °F 93% 30.24 in 10.0 mi NNW 5.8 mph - N/A   Clear
2:35 AM 37.4 °F - 35.6 °F 93% 30.24 in 10.0 mi Calm Calm - N/A   Clear
2:55 AM 35.6 °F 31.7 °F 35.6 °F 100% 30.25 in 10.0 mi NW 4.6 mph - N/A   Clear
3:15 AM 37.4 °F 33.8 °F 35.6 °F 93% 30.26 in 10.0 mi NNW 4.6 mph - N/A   Clear
3:35 AM 37.4 °F 34.9 °F 33.8 °F 87% 30.26 in 10.0 mi NNW 3.5 mph - N/A   Clear
4:15 AM 33.8 °F 26.4 °F 32.0 °F 93% 30.25 in 10.0 mi NNW 9.2 mph - N/A   Clear
4:35 AM 35.6 °F 29.2 °F 33.8 °F 93% 30.25 in 10.0 mi NNW 8.1 mph - N/A   Clear
4:55 AM 35.6 °F 29.2 °F 33.8 °F 93% 30.25 in 10.0 mi NNW 8.1 mph - N/A   Clear
5:15 AM 35.6 °F 28.6 °F 35.6 °F 100% 30.25 in 10.0 mi NNW 9.2 mph - N/A   Clear
5:35 AM 35.6 °F 29.9 °F 33.8 °F 93% 30.26 in 10.0 mi NNW 6.9 mph - N/A   Clear
6:15 AM 35.6 °F 29.9 °F 33.8 °F 93% 30.28 in 10.0 mi NNW 6.9 mph - N/A   Clear
6:35 AM 33.8 °F 29.6 °F 32.0 °F 93% 30.29 in 10.0 mi NW 4.6 mph - N/A   Clear
7:15 AM 32.0 °F 25.6 °F 32.0 °F 100% 30.29 in 10.0 mi NNW 6.9 mph - N/A   Clear
7:35 AM 33.8 °F 27.0 °F 33.8 °F 100% 30.28 in 10.0 mi NNW 8.1 mph - N/A   Clear
7:55 AM 35.6 °F 29.9 °F 33.8 °F 93% 30.28 in 10.0 mi NNW 6.9 mph - N/A   Clear
8:15 AM 35.6 °F 29.9 °F 35.6 °F 100% 30.28 in 10.0 mi NNW 6.9 mph - N/A   Clear
8:35 AM 37.4 °F 32.1 °F 35.6 °F 93% 30.28 in 10.0 mi NNW 6.9 mph - N/A   Clear
8:55 AM 39.2 °F 35.9 °F 37.4 °F 93% 30.29 in 10.0 mi NNW 4.6 mph - N/A   Clear
9:15 AM 39.2 °F - 39.2 °F 100% 30.30 in 10.0 mi Calm Calm - N/A   Clear
9:35 AM 42.8 °F - 39.2 °F 87% 30.29 in 10.0 mi Calm Calm - N/A   Clear
9:55 AM 44.6 °F - 37.4 °F 76% 30.30 in 10.0 mi Calm Calm - N/A   Clear
10:15 AM 46.4 °F 42.9 °F 39.2 °F 76% 30.30 in 10.0 mi East 6.9 mph - N/A   Clear
10:35 AM 48.2 °F - 37.4 °F 66% 30.29 in 10.0 mi East 8.1 mph - N/A   Clear
10:55 AM 48.2 °F - 37.4 °F 66% 30.28 in 10.0 mi East 9.2 mph - N/A   Clear
11:15 AM 50.0 °F - 37.4 °F 62% 30.28 in 10.0 mi East 10.4 mph - N/A   Clear
11:35 AM 50.0 °F - 39.2 °F 66% 30.28 in 10.0 mi ESE 11.5 mph - N/A   Clear
11:55 AM 50.0 °F - 39.2 °F 66% 30.28 in 10.0 mi SE 11.5 mph - N/A   Clear
12:15 PM 50.0 °F - 37.4 °F 62% 30.27 in 10.0 mi ESE 10.4 mph - N/A   Clear
12:35 PM 50.0 °F - 37.4 °F 62% 30.26 in 10.0 mi SE 12.7 mph - N/A   Partly Cloudy
12:55 PM 51.8 °F - 39.2 °F 62% 30.25 in 10.0 mi ESE 10.4 mph - N/A   Scattered Clouds
1:15 PM 51.8 °F - 39.2 °F 62% 30.24 in 10.0 mi ESE 11.5 mph - N/A   Scattered Clouds
1:35 PM 53.6 °F - 39.2 °F 58% 30.24 in 10.0 mi SE 11.5 mph - N/A   Mostly Cloudy
1:55 PM 53.6 °F - 39.2 °F 58% 30.23 in 10.0 mi SE 9.2 mph - N/A   Overcast
2:15 PM 53.6 °F - 39.2 °F 58% 30.21 in 10.0 mi SE 9.2 mph - N/A   Overcast
2:35 PM 53.6 °F - 39.2 °F 58% 30.20 in 10.0 mi SSE 10.4 mph 16.1 mph N/A   Overcast
3:15 PM 53.6 °F - 41.0 °F 62% 30.19 in 10.0 mi SSE 8.1 mph - N/A   Overcast
3:35 PM 53.6 °F - 39.2 °F 58% 30.19 in 10.0 mi SE 9.2 mph - N/A   Mostly Cloudy
3:55 PM 53.6 °F - 39.2 °F 58% 30.19 in 10.0 mi SE 8.1 mph - N/A   Overcast
4:15 PM 53.6 °F - 39.2 °F 58% 30.19 in 10.0 mi SE 9.2 mph - N/A   Mostly Cloudy
4:35 PM 53.6 °F - 39.2 °F 58% 30.18 in 10.0 mi SE 6.9 mph - N/A   Overcast
4:55 PM 53.6 °F - 39.2 °F 58% 30.17 in 10.0 mi ESE 6.9 mph - N/A   Overcast
5:15 PM 53.6 °F - 39.2 °F 58% 30.16 in 10.0 mi East 8.1 mph - N/A   Overcast
5:35 PM 51.8 °F - 39.2 °F 62% 30.15 in 10.0 mi East 6.9 mph - N/A   Overcast
6:15 PM 51.8 °F - 39.2 °F 62% 30.14 in 10.0 mi ESE 8.1 mph - N/A   Overcast
6:55 PM 50.0 °F - 41.0 °F 71% 30.13 in 10.0 mi East 6.9 mph - N/A Rain Light Rain
7:55 PM 50.0 °F - 42.8 °F 76% 30.12 in 10.0 mi SE 11.5 mph - N/A   Overcast
8:35 PM 46.4 °F 41.9 °F 46.4 °F 100% 30.11 in 9.0 mi ESE 9.2 mph - N/A Rain Light Rain
9:15 PM 46.4 °F 40.4 °F 46.4 °F 100% 30.08 in 2.5 mi East 13.8 mph 19.6 mph N/A Rain Light Rain
9:35 PM 46.4 °F 41.1 °F 46.4 °F 100% 30.08 in 10.0 mi ESE 11.5 mph - N/A   Mostly Cloudy
9:55 PM 46.4 °F 41.9 °F 46.4 °F 100% 30.07 in 10.0 mi East 9.2 mph - N/A   Overcast
10:15 PM 46.4 °F 41.1 °F 46.4 °F 100% 30.06 in 10.0 mi East 11.5 mph 17.3 mph N/A   Mostly Cloudy
10:35 PM 46.4 °F 41.9 °F 46.4 °F 100% 30.06 in 10.0 mi East 9.2 mph - N/A   Scattered Clouds
10:55 PM 46.4 °F 41.5 °F 46.4 °F 100% 30.05 in 10.0 mi East 10.4 mph - N/A Rain Light Rain
11:15 PM 46.4 °F 41.9 °F 46.4 °F 100% 30.03 in 5.0 mi East 9.2 mph - N/A Rain Light Rain
11:35 PM 46.4 °F 41.5 °F 46.4 °F 100% 30.02 in 7.0 mi East 10.4 mph - 0.01 in Rain Light Rain
11:55 PM 46.4 °F 41.1 °F 46.4 °F 100% 30.01 in 7.0 mi East 11.5 mph 16.1 mph 0.02 in Rain Light Rain